Location: Jonesport
(44.5330°N, 67.5990°W)
Time: 13:17:04
(UTC-05:00)

Iridium 35 - Visible Passes

Search period start: 22 January 2017 00:00
Search period end: 01 February 2017 00:00
Orbit: 776 x 779 km, 86.4° (Epoch: 21 January)

Date Brightness Start Highest point End Pass type
(mag) Time Alt. Az. Time Alt. Az. Time Alt. Az.
22 Jan 7.2 03:16:36 22° ENE 03:16:36 22° ENE 03:20:24 10° SE visible
22 Jan 5.1 04:57:14 48° W 04:57:24 48° W 05:02:24 10° SSW visible
22 Jan 7.3 17:52:00 10° SW 17:56:15 25° WNW 18:00:32 10° NNW visible
23 Jan 5.6 04:25:41 44° S 04:25:41 44° S 04:29:11 10° S visible
23 Jan 6.3 17:17:34 10° SSW 17:22:30 43° W 17:27:29 10° N visible
24 Jan 7.0 03:53:53 20° SSE 03:53:53 20° SSE 03:55:29 10° SSE visible
25 Jan 7.8 17:53:03 10° WSW 17:56:34 18° WNW 18:00:06 10° NNW visible
26 Jan 7.0 17:18:09 10° SW 17:22:44 31° WNW 17:27:21 10° NNW visible
28 Jan 8.0 17:54:40 10° W 17:56:56 13° WNW 17:59:13 10° NW visible
29 Jan 7.6 17:19:00 10° SW 17:23:01 22° WNW 17:27:04 10° NNW visible
